Retour au catalogue

STARLINK-11178

ActifCommunicationsVLEO
NORAD 62465·PAYLOAD·🇺🇸 United States

Lancé Dec 31, 2024 depuis Cape Canaveral Space Force Station

Loading…

Prochains Passages (prochaines 24 heures)

TLE

FraisSource: CelesTrak SupGP

Époque: Sep 14, 2026, 14:29 UTC

1 62465C 24254D   26257.60395833 -.00003481  00000+0 -27059-4 0  2570
2 62465  43.0005 164.5052 0001340 270.1911 315.1905 15.70820559    16

Suivez STARLINK-11178 en temps réel avec AllMySat

Download on the App Store